INTERCOSMOS 22

Satellite information

Favourite Embed

Satellite Type and Status

PAYLOADIN ORBIT

Key statistics

Satellite INTERCOSMOS 22 at a glance.

Uptime

16039

Days in orbit

Revolutions

≈ 14.2

Per day

Orbit

LEO

Low Earth Orbit

Inclination

81.2

Latest

Satellite identification and parameters

Extended collection of information and parameters for INTERCOSMOS 22.

Object identification

Identified? True

Debris? False

Object name: INTERCOSMOS 22

International designator: 1981-075A

Object number (NORAD): 12645

Object ID (CCSDS): 12645

Country: COMMONWEALTH OF INDEPENDENT STATES (CIS)

Current information (Y/N): Y

RCS size: LARGE

Orbital parameters

Period: 101.488 minutes

Inclination: 81.216 deg

SMA: 7207.265 km

Apoapsis: 875.204 km

Periapsis: 783.056 km

RAAN: 190.6234 deg

Eccentricy: 0.0063927

Argument of periapsis: 123.3525 deg

Mean anomaly: 237.3792 deg

Mean motion: 14.18884391 rev/day

Mean motion (dot): 0.00000082 rev/day2

B* drag term: 0.000032115 1/REarth

Two-line elements (TLE)

Creation date: July 5, 2025, 5:45 p.m.

Reference frame: TEME

Reference center: EARTH

Epoch: July 5, 2025, 12:19 p.m. UTC

TLE line 0: 0 INTERCOSMOS 22

TLE line 1: 1 12645U 81075A 25186.51356162 .00000082 00000-0 32115-4 0 9996

TLE line 2: 2 12645 81.2160 190.6234 0063927 123.3525 237.3792 14.18884391270886

Live tracking on map

Real-time ground track for satellite INTERCOSMOS 22.

In-orbit conjunctions

A list of the most updated potential collisions computed for object INTERCOSMOS 22.

Target Orbit TCA Probability of collision Miss distance Type
FENGYUN 1C DEB SSO 2025-05-27 16:12:57 0.0003630079 179.0 (m) DEBRIS
CZ-6A DEB SSO 2025-03-30 09:24:53 0.0001151931 678.0 (m) DEBRIS
FENGYUN 1C DEB SSO 2025-03-20 16:42:56 0.0002671949 148.0 (m) DEBRIS
NOAA 16 DEB SSO 2025-03-15 02:09:00 0.0003166204 375.0 (m) DEBRIS
CZ-6A DEB LEO 2025-02-23 21:32:12 0.0001300488 540.0 (m) DEBRIS

Associated space launch

Interkosmos satellite research satellite carrying scientific experiments designed and built in Bulgaria

INTERCOSMOS 22 was lifted into orbit during the mission ‘Vostok 8A92M | Bulgaria 1300’, on board a Vostok 8A92M space rocket.

The launch took place on Aug. 7, 1981, 1:35 p.m. from 43/3 (43L).

For more information about the launch, click the button.

Launch to space Vostok 8A92M | Bulgaria 1300
Vostok 8A92M | Bulgaria 1300

Agency: N/A

Status: Launch Successful

Launch date: Aug. 7, 1981, 1:35 p.m. UTC

Rocket: Vostok 8A92M

Launch pad: 43/3 (43L)

Location: Plesetsk Cosmodrome, Russian Federation

...

Latest news about this satellite

There are no fresh news available about this satellite. Check back as we update our databases every day.


Newsletter sign-up

Weekly statistics, charts and insights to help you stay on top of the space industry.